User: anonymous   Login
Location: Beaurecueil
(43.5122°N, 5.5450°E)
Time: 17:30:45
(UTC+00:00)
Language:

CSL-04 Rocket - Orbit

View from above orbital plane
View from above orbital plane
View from above satellite
View from above satellite

Ground track
Ground track

The orbit data is extracted from the following two-line orbital elements,

1 25732U 99025C   20330.95346854 -.00000017 +00000-0 +13707-4 0  9997
2 25732 098.9290 000.6833 0038296 109.8580 311.6967 14.17684090114703
Epoch (UTC): 25 November 2020 22:52:59
Eccentricity: 0.0038296
inclination: 98.9290°
perigee height: 805 km
apogee height: 861 km
right ascension of ascending node: 0.6833°
argument of perigee: 109.8580°
revolutions per day: 14.17684090
mean anomaly at epoch: 311.6967°
orbit number at epoch: 11470

The dashed part of the orbit path shows where the satellite is in the earth's shadow,  

DLR